Weather History for KEWB - March, 2013

Change the Weather History Date:

Thursday, March 7, 2013

  Actual Average Record
Temperature  
Mean Temperature 34 °F -  
Max Temperature 36 °F 43 °F 64 °F (1987)
Min Temperature 33 °F 28 °F 1 °F (2015)
Degree Days  
Heating Degree Days 30    
Moisture  
Dew Point 32 °F    
Average Humidity 90    
Maximum Humidity 96    
Minimum Humidity 86    
Precipitation  
Precipitation 0.76 in - - ()
Sea Level Pressure  
Sea Level Pressure 29.89 in    
Wind  
Wind Speed 18 mph (NNE)    
Max Wind Speed 23 mph    
Max Gust Speed 43 mph    
Visibility 2 miles    
Events Fog , Snow    
Averages and records for this station are not official NWS values.
T = Trace of Precipitation, MM = Missing Value Source: NWS Daily Summary

Daily Weather History Graph

Daily Weather History Graph

Search for Another Location

Airport or City:

Trip Planner

Search our weather history database for the weather conditions in past years. The results will help you decide how hot, cold, wet, or windy it might be!

Date:

Astronomy

Mar. 07, 2013 Rise Set
Actual Time 6:08 AM EST 5:41 PM EST
Civil Twilight 5:40 AM EST 6:09 PM EST
Nautical Twilight 5:08 AM EST 6:41 PM EST
Astronomical Twilight 4:36 AM EST 7:13 PM EST
Moon 3:08 AM EST (3/7) 1:23 PM EST (3/7)
Length of Visible Light 12h 28m
Length of Day
11h 32m
Waning Crescent, 20% of the Moon is Illuminated
Mar 7
Waning Crescent
Mar 11
New
Mar 19
First Quarter
Mar 27
Full
Apr 3
Last Quarter

Hourly Weather History & Observations

Time (EST) Temp. Windchill Dew Point Humidity Pressure Visibility Wind Dir Wind Speed Gust Speed Precip Events Conditions
12:39 AM 35.6 °F 24.2 °F 33.8 °F 93% 29.90 in 2.0 mi NNE 21.9 mph 38.0 mph 0.00 in Snow Light Snow
12:53 AM 36.0 °F 24.7 °F 33.1 °F 89% 29.90 in 2.5 mi NNE 21.9 mph 42.6 mph 0.01 in Snow Light Snow
1:49 AM 35.6 °F 25.2 °F 33.8 °F 93% 29.89 in 3.0 mi NNE 18.4 mph 36.8 mph 0.02 in Snow Light Snow
1:53 AM 36.0 °F 24.4 °F 32.0 °F 86% 29.89 in 3.0 mi NNE 23.0 mph 36.8 mph 0.03 in Snow Light Snow
2:13 AM 35.6 °F 25.5 °F 32.0 °F 87% 29.88 in 2.5 mi NNE 17.3 mph 32.2 mph 0.00 in Snow Light Snow
2:43 AM 35.6 °F 24.2 °F 32.0 °F 87% 29.88 in 2.0 mi NNE 21.9 mph 35.7 mph 0.02 in Snow Light Snow
2:50 AM 35.6 °F 24.8 °F 32.0 °F 87% 29.88 in 1.5 mi NNE 19.6 mph 34.5 mph 0.03 in Snow Light Snow
2:53 AM 35.1 °F 25.2 °F 32.0 °F 89% 29.88 in 1.8 mi NNE 16.1 mph 31.1 mph 0.03 in Snow Light Snow
3:16 AM 35.6 °F 25.2 °F 32.0 °F 87% 29.87 in 2.5 mi NNE 18.4 mph 39.1 mph 0.02 in Snow Light Snow
3:26 AM 35.6 °F 25.9 °F 32.0 °F 87% 29.87 in 4.0 mi NNE 16.1 mph 31.1 mph 0.02 in Snow Light Snow
3:53 AM 35.1 °F 24.1 °F 32.0 °F 89% 29.88 in 4.0 mi NNE 19.6 mph 31.1 mph 0.02 in Snow Light Snow
4:07 AM 35.6 °F 25.2 °F 32.0 °F 87% 29.88 in 2.0 mi NNE 18.4 mph 39.1 mph 0.01 in Snow Light Snow
4:18 AM 33.8 °F 22.5 °F 32.0 °F 93% 29.88 in 1.5 mi NNE 19.6 mph 34.5 mph 0.02 in Snow Light Snow
4:37 AM 33.8 °F 23.5 °F 32.0 °F 93% 29.88 in 1.2 mi NNE 16.1 mph 29.9 mph 0.04 in Snow Light Snow
4:53 AM 34.0 °F 22.4 °F 32.0 °F 92% 29.88 in 1.2 mi NNE 20.7 mph 29.9 mph 0.06 in Snow Light Snow
5:26 AM 33.8 °F 23.9 °F 32.0 °F 93% 29.89 in 0.8 mi NNE 15.0 mph 33.4 mph 0.04 in Snow Light Snow
5:50 AM 33.8 °F 23.2 °F 32.0 °F 93% 29.89 in 0.8 mi NNE 17.3 mph 25.3 mph 0.07 in Snow Light Snow
5:53 AM 34.0 °F 25.0 °F 32.0 °F 92% 29.89 in 0.8 mi NNE 12.7 mph 28.8 mph 0.08 in Snow Light Snow
6:16 AM 33.8 °F 23.5 °F 32.0 °F 93% 29.89 in 1.0 mi NNE 16.1 mph 25.3 mph 0.02 in Snow Light Snow
6:31 AM 33.8 °F 24.3 °F 32.0 °F 93% 29.89 in 0.8 mi NNE 13.8 mph 29.9 mph 0.03 in Snow Light Snow
6:53 AM 34.0 °F 24.6 °F 32.0 °F 92% 29.89 in 0.5 mi NNE 13.8 mph 28.8 mph 0.05 in Fog , Snow Snow
7:38 AM 33.8 °F 23.9 °F 32.0 °F 93% 29.90 in 0.5 mi NNE 15.0 mph 26.5 mph 0.04 in Fog , Snow Snow
7:53 AM 34.0 °F 24.6 °F 32.0 °F 92% 29.91 in 0.8 mi NNE 13.8 mph 25.3 mph 0.05 in Snow Light Snow
8:49 AM 33.8 °F 24.3 °F 32.0 °F 93% 29.90 in 1.0 mi NNE 13.8 mph 24.2 mph 0.04 in Snow Light Snow
8:53 AM 35.1 °F 24.5 °F 32.0 °F 89% 29.90 in 1.2 mi NNE 18.4 mph 28.8 mph 0.04 in Snow Light Snow
9:53 AM 36.0 °F 26.3 °F 33.1 °F 89% 29.89 in 3.0 mi NNE 16.1 mph 29.9 mph 0.06 in Snow Light Snow
10:10 AM 35.6 °F 25.5 °F 33.8 °F 93% 29.89 in 2.5 mi NNE 17.3 mph 28.8 mph 0.01 in Snow Light Snow
10:17 AM 35.6 °F 25.2 °F 33.8 °F 93% 29.89 in 3.0 mi NNE 18.4 mph 27.6 mph 0.02 in Snow Light Snow
10:53 AM 36.0 °F 26.0 °F 33.1 °F 89% 29.90 in 3.0 mi NNE 17.3 mph 33.4 mph 0.03 in Snow Light Snow
11:53 AM 36.0 °F 27.1 °F 33.1 °F 89% 29.90 in 2.5 mi North 13.8 mph 28.8 mph 0.04 in Snow Light Snow
12:53 PM 36.0 °F 25.6 °F 33.1 °F 89% 29.90 in 2.0 mi NNE 18.4 mph 26.5 mph 0.04 in Snow Light Snow
1:53 PM 35.1 °F 25.9 °F 32.0 °F 89% 29.90 in 1.5 mi NNE 13.8 mph 32.2 mph 0.03 in Snow Light Snow
2:53 PM 34.0 °F 22.7 °F 32.0 °F 92% 29.90 in 1.0 mi NNE 19.6 mph 28.8 mph 0.04 in Snow Light Snow
3:53 PM 33.1 °F 21.9 °F 30.9 °F 92% 29.90 in 1.0 mi North 18.4 mph 36.8 mph 0.02 in Snow Light Snow
4:53 PM 33.1 °F 22.2 °F 30.9 °F 92% 29.91 in 1.0 mi North 17.3 mph 34.5 mph 0.01 in Snow Light Snow
5:53 PM 33.1 °F 22.2 °F 30.9 °F 92% 29.92 in 0.8 mi North 17.3 mph 25.3 mph 0.02 in Snow Light Snow
6:53 PM 33.1 °F 24.4 °F 32.0 °F 96% 29.93 in 1.0 mi NNE 11.5 mph 27.6 mph 0.02 in Snow Light Snow
7:53 PM 33.1 °F 22.6 °F 30.9 °F 92% 29.92 in 1.0 mi North 16.1 mph 25.3 mph 0.02 in Snow Light Snow
8:20 PM 33.8 °F 24.3 °F 30.2 °F 87% 29.91 in 0.8 mi North 13.8 mph 24.2 mph 0.01 in Snow Light Snow
8:27 PM 33.8 °F 25.3 °F 30.2 °F 87% 29.91 in 1.0 mi North 11.5 mph 23.0 mph 0.01 in Snow Light Snow
8:53 PM 33.1 °F 23.9 °F 30.9 °F 92% 29.91 in 1.0 mi North 12.7 mph 23.0 mph 0.02 in Snow Light Snow
9:23 PM 33.8 °F 24.8 °F 30.2 °F 87% 29.90 in 0.8 mi North 12.7 mph 25.3 mph 0.02 in Snow Light Snow
9:33 PM 33.8 °F 24.8 °F 30.2 °F 87% 29.90 in 1.0 mi North 12.7 mph 26.5 mph 0.02 in Snow Light Snow
9:53 PM 33.1 °F 23.9 °F 30.9 °F 92% 29.91 in 1.2 mi North 12.7 mph 23.0 mph 0.03 in Snow Light Snow
10:53 PM 34.0 °F 25.0 °F 30.9 °F 89% 29.90 in 1.5 mi NNE 12.7 mph 25.3 mph 0.01 in Snow Light Snow
11:53 PM 34.0 °F 23.8 °F 30.9 °F 89% 29.88 in 1.5 mi NNE 16.1 mph 34.5 mph 0.00 in Snow Light Snow